NOAA 16 DEB, 41142

Orbit data source: Space-Track

NOAA 16 DEB, 41142 is space debris in SSO originally from a launch on Thu, 21 Sep 2000 UTC launched from the Air Force Western Test Range (AFWTR). Debris objects in space refer to the collection of defunct objects orbiting the Earth. Examples of debris include non-operational satellites, rocket bodies, and fragments generated from explosions, collisions, or faulty payload assembly.

Loading next visibility...
Identifier
41142, 2000-055BZ
Orbit
SSO
Country
Flag of USUS
Related business
Manufacturer
Unknown
Mission
Spacecraft
Bus & Motor
Unknown
Mass
Unknown
Launch date (UTC)
2000-09-21 (25 years ago)
Launch vehicle
Unknown
Launch site
Air Force Western Test Range (AFWTR)
Object type
Payload
Rocket body
Debris
Shape & HBR
Unknown shape, 0.1 m
Radar Cross Section
Small (<0.1 m²)

Expand to show TLE details & history
Last TLE update: 1 day ago

TLE from 1 day ago
0 NOAA 16 DEB
1 41142U 00055BZ  25286.49633736  .00054672  00000-0  63601-2 0  9998
2 41142  98.8581 120.6251 0023514 298.9560  60.9294 14.84857010516723
Epoch: 2025-10-13T11:54Z
TLE epoch observation values (Epoch: 2025-10-13T11:54:43.547Z)
Latitude
-0.00005°
Longitude
-80.35462°
Altitude
609.072 km
Speed
7.559 km/s
True Right ascension
08h 02m 30s
True Declination
0° 00' 00"
Sunlit
Object was in daylight at epoch
Visualization orbit readout
Latitude
Unknown
Longitude
Unknown
Altitude
Unknown
Speed
Unknown
Apparent Right ascension
Unknown
Apparent Declination
Unknown
Sunlit
N/A
Visualization observer readout
Local Sidereal Time
09:33:23
Azimuth
Unknown
Elevation
Unknown
Doppler factor
Unknown
Orbital elements
Apogee altitude
627.549 km
Perigee altitude
594.68 km
Semi-major axis
6,989.252 km
Eccentricity
0.00235
Inclination
98.8581°
RAAN
120.6251°
Arg. of periapsis
298.956°
True anomaly
61.16524°
Mean anomaly
60.9294°
Eccentric anomaly
61.04729°
Mean motion
3.71447 °/min
Orbital period
96.92 mins
BSTAR
0.0063601
Loading maneuver chart data...
Computing Atmospheric mass density...
Loading historical data...
Loading historical data...
Loading historical data...
Loading historical data...
Loading historical data...
Loading historical data...
Loading historical data...

Documentation

Showing up to 5 results
|